Time,TemperatureF,DewpointF,PressureIn,WindDirection,WindDirectionDegrees,WindSpeedMPH,WindSpeedGustMPH,Humidity,HourlyPrecipIn,Conditions,Clouds,dailyrainin,SoftwareType,DateUTC
2013-03-24 00:07:00,10.9,1.8,30.57,NW,315,0.0,2.0,66,0.00,,,0.00,meteohub,2013-03-24 06:07:00,
2013-03-24 00:12:00,10.8,1.6,30.57,NW,315,0.0,2.0,66,0.00,,,0.00,meteohub,2013-03-24 06:12:00,
2013-03-24 00:17:00,10.8,1.6,30.53,WNW,292,0.0,0.0,66,0.00,,,0.00,meteohub,2013-03-24 06:17:00,
2013-03-24 00:22:00,10.9,1.8,30.53,WNW,292,0.0,0.0,66,0.00,,,0.00,meteohub,2013-03-24 06:22:00,
2013-03-24 00:27:00,10.9,1.8,30.53,WNW,292,0.0,0.0,66,0.00,,,0.00,meteohub,2013-03-24 06:27:00,
2013-03-24 00:32:00,10.9,1.8,30.53,WNW,292,0.0,0.0,66,0.00,,,0.00,meteohub,2013-03-24 06:32:00,
2013-03-24 00:42:00,11.1,1.9,30.53,WNW,292,0.0,0.0,66,0.00,,,0.00,meteohub,2013-03-24 06:42:00,
2013-03-24 00:47:00,11.3,2.1,30.53,WNW,292,0.0,0.0,66,0.00,,,0.00,meteohub,2013-03-24 06:47:00,
2013-03-24 00:52:00,11.3,2.1,30.53,WNW,292,0.0,0.0,66,0.00,,,0.00,meteohub,2013-03-24 06:52:00,
2013-03-24 00:57:00,11.3,2.1,30.53,WNW,292,0.0,0.0,66,0.00,,,0.00,meteohub,2013-03-24 06:57:00,
2013-03-24 01:02:00,11.3,2.1,30.53,WNW,292,0.0,0.0,66,0.00,,,0.00,meteohub,2013-03-24 07:02:00,
2013-03-24 01:12:00,11.1,1.9,30.53,WNW,292,0.0,0.0,66,0.00,,,0.00,meteohub,2013-03-24 07:12:00,
2013-03-24 01:17:00,11.1,1.9,30.53,WNW,292,0.0,0.0,66,0.00,,,0.00,meteohub,2013-03-24 07:17:00,
2013-03-24 01:22:00,10.9,1.8,30.53,WNW,292,0.0,0.0,66,0.00,,,0.00,meteohub,2013-03-24 07:22:00,
2013-03-24 01:27:00,10.8,1.6,30.53,WNW,292,0.0,0.0,66,0.00,,,0.00,meteohub,2013-03-24 07:27:00,
2013-03-24 01:37:00,10.6,1.4,30.54,WNW,292,0.0,0.0,66,0.00,,,0.00,meteohub,2013-03-24 07:37:00,
2013-03-24 01:42:00,10.2,1.2,30.54,WNW,292,0.0,0.0,66,0.00,,,0.00,meteohub,2013-03-24 07:42:00,
2013-03-24 01:47:00,10.0,1.0,30.54,WNW,292,0.0,0.0,66,0.00,,,0.00,meteohub,2013-03-24 07:47:00,
2013-03-24 01:52:00,9.7,0.7,30.55,WNW,292,0.0,0.0,66,0.00,,,0.00,meteohub,2013-03-24 07:52:00,
2013-03-24 01:57:00,9.3,0.3,30.56,WNW,292,0.0,0.0,66,0.00,,,0.00,meteohub,2013-03-24 07:57:00,
2013-03-24 02:02:00,9.1,0.1,30.56,WNW,292,0.0,0.0,66,0.00,,,0.00,meteohub,2013-03-24 08:02:00,
2013-03-24 02:07:00,9.0,0.0,30.56,WNW,292,0.0,0.0,66,0.00,,,0.00,meteohub,2013-03-24 08:07:00,
2013-03-24 02:17:00,8.4,-0.6,30.57,WNW,292,0.0,0.0,66,0.00,,,0.00,meteohub,2013-03-24 08:17:00,
2013-03-24 02:22:00,8.2,-0.8,30.57,WNW,292,0.0,0.0,66,0.00,,,0.00,meteohub,2013-03-24 08:22:00,
2013-03-24 02:27:00,7.9,-1.1,30.57,WNW,292,0.0,0.0,66,0.00,,,0.00,meteohub,2013-03-24 08:27:00,
2013-03-24 02:32:00,7.7,-1.3,30.54,WNW,292,0.0,0.0,66,0.00,,,0.00,meteohub,2013-03-24 08:32:00,
2013-03-24 02:37:00,7.5,-1.5,30.54,WNW,292,0.0,0.0,66,0.00,,,0.00,meteohub,2013-03-24 08:37:00,
2013-03-24 02:47:00,7.2,-1.8,30.55,WNW,292,0.0,0.0,66,0.00,,,0.00,meteohub,2013-03-24 08:47:00,
2013-03-24 02:52:00,7.0,-2.0,30.55,ENE,68,0.0,0.0,66,0.00,,,0.00,meteohub,2013-03-24 08:52:00,
2013-03-24 02:57:00,6.6,-2.4,30.56,ENE,68,0.0,0.0,66,0.00,,,0.00,meteohub,2013-03-24 08:57:00,
2013-03-24 03:02:00,6.4,-2.6,30.56,ENE,68,0.0,0.0,66,0.00,,,0.00,meteohub,2013-03-24 09:02:00,
2013-03-24 03:07:00,6.3,-2.6,30.56,ENE,68,0.0,0.0,66,0.00,,,0.00,meteohub,2013-03-24 09:07:00,
2013-03-24 03:12:00,6.3,-2.6,30.56,ENE,68,0.0,0.0,66,0.00,,,0.00,meteohub,2013-03-24 09:12:00,
2013-03-24 03:17:00,6.1,-2.7,30.56,ENE,68,0.0,0.0,66,0.00,,,0.00,meteohub,2013-03-24 09:17:00,
2013-03-24 03:22:00,6.1,-2.7,30.56,ENE,68,0.0,0.0,66,0.00,,,0.00,meteohub,2013-03-24 09:22:00,
2013-03-24 03:27:00,6.1,-2.7,30.56,NNE,22,0.0,0.0,66,0.00,,,0.00,meteohub,2013-03-24 09:27:00,
2013-03-24 03:37:00,5.9,-2.9,30.56,ENE,68,0.0,1.0,66,0.00,,,0.00,meteohub,2013-03-24 09:37:00,
2013-03-24 03:42:00,5.9,-2.9,30.56,ENE,68,0.0,1.0,66,0.00,,,0.00,meteohub,2013-03-24 09:42:00,
2013-03-24 03:47:00,5.9,-2.9,30.56,ENE,68,0.0,0.0,66,0.00,,,0.00,meteohub,2013-03-24 09:47:00,
2013-03-24 03:52:00,5.9,-2.9,30.56,ENE,68,0.0,0.0,66,0.00,,,0.00,meteohub,2013-03-24 09:52:00,
2013-03-24 03:57:00,5.9,-2.9,30.56,ENE,68,0.0,0.0,66,0.00,,,0.00,meteohub,2013-03-24 09:57:00,
2013-03-24 04:02:00,5.7,-3.1,30.57,ENE,68,0.0,0.0,66,0.00,,,0.00,meteohub,2013-03-24 10:02:00,
2013-03-24 04:07:00,5.5,-3.3,30.57,ENE,68,0.0,0.0,66,0.00,,,0.00,meteohub,2013-03-24 10:07:00,
2013-03-24 04:12:00,5.4,-3.5,30.57,ENE,68,0.0,0.0,66,0.00,,,0.00,meteohub,2013-03-24 10:12:00,
2013-03-24 04:17:00,5.2,-3.6,30.58,ENE,68,0.0,0.0,66,0.00,,,0.00,meteohub,2013-03-24 10:17:00,
2013-03-24 04:22:00,5.2,-3.6,30.58,ENE,68,0.0,0.0,66,0.00,,,0.00,meteohub,2013-03-24 10:22:00,
2013-03-24 04:27:00,5.2,-3.6,30.58,ENE,68,0.0,0.0,66,0.00,,,0.00,meteohub,2013-03-24 10:27:00,
2013-03-24 04:37:00,4.5,-4.4,30.58,ENE,68,0.0,0.0,66,0.00,,,0.00,meteohub,2013-03-24 10:37:00,
2013-03-24 04:42:00,4.3,-4.5,30.59,ENE,68,0.0,0.0,66,0.00,,,0.00,meteohub,2013-03-24 10:42:00,
2013-03-24 04:47:00,4.3,-4.5,30.59,ENE,68,0.0,0.0,66,0.00,,,0.00,meteohub,2013-03-24 10:47:00,
2013-03-24 04:52:00,4.1,-4.7,30.59,ENE,68,0.0,0.0,66,0.00,,,0.00,meteohub,2013-03-24 10:52:00,
2013-03-24 05:02:00,4.1,-4.7,30.59,ENE,68,0.0,0.0,66,0.00,,,0.00,meteohub,2013-03-24 11:02:00,
2013-03-24 05:07:00,4.3,-4.5,30.59,ENE,68,0.0,0.0,66,0.00,,,0.00,meteohub,2013-03-24 11:07:00,
2013-03-24 05:12:00,4.1,-4.7,30.59,ENE,68,0.0,0.0,66,0.00,,,0.00,meteohub,2013-03-24 11:12:00,
2013-03-24 05:22:00,3.9,-4.9,30.59,ENE,68,0.0,0.0,66,0.00,,,0.00,meteohub,2013-03-24 11:22:00,
2013-03-24 05:27:00,3.9,-4.9,30.59,ENE,68,0.0,0.0,66,0.00,,,0.00,meteohub,2013-03-24 11:27:00,
2013-03-24 05:32:00,3.9,-4.9,30.59,ENE,68,0.0,0.0,66,0.00,,,0.00,meteohub,2013-03-24 11:32:00,
2013-03-24 05:37:00,4.1,-4.7,30.59,ENE,68,0.0,0.0,66,0.00,,,0.00,meteohub,2013-03-24 11:37:00,
2013-03-24 05:42:00,4.1,-4.7,30.59,ENE,68,0.0,0.0,66,0.00,,,0.00,meteohub,2013-03-24 11:42:00,
2013-03-24 05:47:00,4.1,-4.7,30.59,ENE,68,0.0,0.0,66,0.00,,,0.00,meteohub,2013-03-24 11:47:00,
2013-03-24 05:57:00,4.1,-4.7,30.59,ESE,112,0.0,2.0,66,0.00,,,0.00,meteohub,2013-03-24 11:57:00,
2013-03-24 06:02:00,3.6,-5.3,30.60,ESE,112,0.0,2.0,66,0.00,,,0.00,meteohub,2013-03-24 12:02:00,
2013-03-24 06:07:00,3.4,-5.4,30.60,ESE,112,0.0,2.0,66,0.00,,,0.00,meteohub,2013-03-24 12:07:00,
2013-03-24 06:12:00,3.2,-5.6,30.60,ESE,112,0.0,0.0,66,0.00,,,0.00,meteohub,2013-03-24 12:12:00,
2013-03-24 06:22:00,2.7,-6.2,30.61,ESE,112,0.0,0.0,66,0.00,,,0.00,meteohub,2013-03-24 12:22:00,
2013-03-24 06:27:00,2.5,-6.3,30.61,ESE,112,0.0,0.0,66,0.00,,,0.00,meteohub,2013-03-24 12:27:00,
2013-03-24 06:32:00,2.5,-6.3,30.61,ESE,112,0.0,0.0,66,0.00,,,0.00,meteohub,2013-03-24 12:32:00,
2013-03-24 06:37:00,2.7,-6.2,30.61,ESE,112,0.0,0.0,66,0.00,,,0.00,meteohub,2013-03-24 12:37:00,
2013-03-24 06:47:00,2.7,-6.2,30.61,ESE,112,0.0,0.0,66,0.00,,,0.00,meteohub,2013-03-24 12:47:00,
2013-03-24 06:57:00,3.0,-5.8,30.61,ESE,112,0.0,0.0,66,0.00,,,0.00,meteohub,2013-03-24 12:57:00,
2013-03-24 07:02:00,3.0,-5.8,30.61,ESE,112,0.0,0.0,66,0.00,,,0.00,meteohub,2013-03-24 13:02:00,
2013-03-24 07:07:00,3.2,-5.6,30.60,ESE,112,0.0,0.0,66,0.00,,,0.00,meteohub,2013-03-24 13:07:00,
2013-03-24 07:12:00,3.4,-5.4,30.60,ESE,112,0.0,0.0,66,0.00,,,0.00,meteohub,2013-03-24 13:12:00,
2013-03-24 07:17:00,3.4,-5.4,30.60,ESE,112,0.0,0.0,66,0.00,,,0.00,meteohub,2013-03-24 13:17:00,
2013-03-24 07:22:00,3.7,-5.1,30.60,ESE,112,0.0,0.0,66,0.00,,,0.00,meteohub,2013-03-24 13:22:00,
2013-03-24 07:32:00,5.0,-3.8,30.58,East,90,0.0,0.0,66,0.00,,,0.00,meteohub,2013-03-24 13:32:00,
2013-03-24 07:37:00,5.7,-3.1,30.57,East,90,0.0,0.0,66,0.00,,,0.00,meteohub,2013-03-24 13:37:00,
2013-03-24 07:42:00,6.1,-2.7,30.56,East,90,0.0,0.0,66,0.00,,,0.00,meteohub,2013-03-24 13:42:00,
2013-03-24 07:47:00,6.6,-2.4,30.56,East,90,0.0,0.0,66,0.00,,,0.00,meteohub,2013-03-24 13:47:00,
2013-03-24 07:52:00,7.5,-1.5,30.54,East,90,0.0,0.0,66,0.00,,,0.00,meteohub,2013-03-24 13:52:00,
2013-03-24 07:57:00,8.1,-0.9,30.53,East,90,0.0,0.0,66,0.00,,,0.00,meteohub,2013-03-24 13:57:00,
2013-03-24 08:02:00,8.6,-0.4,30.53,East,90,0.0,0.0,66,0.00,,,0.00,meteohub,2013-03-24 14:02:00,
2013-03-24 08:07:00,9.3,0.3,30.52,SE,135,0.0,0.0,66,0.00,,,0.00,meteohub,2013-03-24 14:07:00,
2013-03-24 08:17:00,11.1,1.9,30.49,SE,135,0.0,0.0,66,0.00,,,0.00,meteohub,2013-03-24 14:17:00,
2013-03-24 08:22:00,11.8,2.7,30.48,SE,135,0.0,0.0,66,0.00,,,0.00,meteohub,2013-03-24 14:22:00,
2013-03-24 08:27:00,12.6,3.4,30.47,SE,135,0.0,0.0,66,0.00,,,0.00,meteohub,2013-03-24 14:27:00,
2013-03-24 08:32:00,13.1,3.9,30.47,SE,135,0.0,0.0,66,0.00,,,0.00,meteohub,2013-03-24 14:32:00,
2013-03-24 08:37:00,13.8,4.6,30.46,SE,135,0.0,0.0,66,0.00,,,0.00,meteohub,2013-03-24 14:37:00,
2013-03-24 08:42:00,14.5,8.1,30.45,SE,135,0.0,0.0,75,0.00,,,0.00,meteohub,2013-03-24 14:42:00,
2013-03-24 08:47:00,15.3,8.4,30.44,ESE,112,0.0,2.0,74,0.00,,,0.00,meteohub,2013-03-24 14:47:00,
2013-03-24 08:57:00,17.1,9.9,30.41,East,90,0.0,2.0,73,0.00,,,0.00,meteohub,2013-03-24 14:57:00,
2013-03-24 09:02:00,18.1,10.6,30.40,ENE,68,1.0,0.0,72,0.00,,,0.00,meteohub,2013-03-24 15:02:00,
2013-03-24 09:07:00,19.0,11.1,30.39,ENE,68,0.0,2.0,71,0.00,,,0.00,meteohub,2013-03-24 15:07:00,
2013-03-24 09:12:00,19.9,11.5,30.38,NE,45,0.0,3.0,69,0.00,,,0.00,meteohub,2013-03-24 15:12:00,
2013-03-24 09:17:00,20.5,11.7,30.37,NE,45,0.0,3.0,68,0.00,,,0.00,meteohub,2013-03-24 15:17:00,
2013-03-24 09:27:00,21.7,11.5,30.35,ENE,68,0.0,2.0,64,0.00,,,0.00,meteohub,2013-03-24 15:27:00,
2013-03-24 09:37:00,23.2,10.9,30.33,NNE,22,2.0,2.0,59,0.00,,,0.00,meteohub,2013-03-24 15:37:00,
2013-03-24 09:42:00,23.9,11.3,30.32,ENE,68,0.0,2.0,58,0.00,,,0.00,meteohub,2013-03-24 15:42:00,
2013-03-24 09:47:00,24.4,10.9,30.32,NNE,22,0.0,2.0,56,0.00,,,0.00,meteohub,2013-03-24 15:47:00,
2013-03-24 09:57:00,25.5,11.7,30.30,ENE,68,3.0,3.0,55,0.00,,,0.00,meteohub,2013-03-24 15:57:00,
2013-03-24 10:02:00,25.9,11.5,30.30,East,90,4.0,4.0,54,0.00,,,0.00,meteohub,2013-03-24 16:02:00,
2013-03-24 10:12:00,25.9,10.2,30.30,NNE,22,2.0,6.0,51,0.00,,,0.00,meteohub,2013-03-24 16:12:00,
2013-03-24 10:17:00,26.2,11.1,30.30,ENE,68,2.0,6.0,52,0.00,,,0.00,meteohub,2013-03-24 16:17:00,
2013-03-24 10:22:00,26.4,11.1,30.29,ESE,112,2.0,5.0,52,0.00,,,0.00,meteohub,2013-03-24 16:22:00,
2013-03-24 10:27:00,26.1,10.0,30.30,ENE,68,0.0,5.0,50,0.00,,,0.00,meteohub,2013-03-24 16:27:00,
2013-03-24 10:37:00,26.2,8.8,30.30,NNW,338,3.0,6.0,47,0.00,,,0.00,meteohub,2013-03-24 16:37:00,
2013-03-24 10:42:00,26.2,8.8,30.30,NNW,338,4.0,6.0,47,0.00,,,0.00,meteohub,2013-03-24 16:42:00,
2013-03-24 10:47:00,26.4,9.5,30.29,ENE,68,4.0,6.0,48,0.00,,,0.00,meteohub,2013-03-24 16:47:00,
2013-03-24 10:52:00,26.2,8.8,30.30,NNW,338,4.0,6.0,47,0.00,,,0.00,meteohub,2013-03-24 16:52:00,
2013-03-24 10:57:00,26.8,9.3,30.29,NNE,22,5.0,6.0,47,0.00,,,0.00,meteohub,2013-03-24 16:57:00,
2013-03-24 11:02:00,27.0,9.5,30.29,NNE,22,1.0,6.0,47,0.00,,,0.00,meteohub,2013-03-24 17:02:00,
2013-03-24 11:07:00,27.0,9.0,30.29,ENE,68,4.0,6.0,46,0.00,,,0.00,meteohub,2013-03-24 17:07:00,
2013-03-24 11:17:00,27.7,9.1,30.28,NNE,22,0.0,6.0,45,0.00,,,0.00,meteohub,2013-03-24 17:17:00,
2013-03-24 11:22:00,28.6,9.5,30.27,NNE,22,4.0,6.0,44,0.00,,,0.00,meteohub,2013-03-24 17:22:00,
2013-03-24 11:27:00,30.0,11.3,30.25,NNW,338,2.0,6.0,45,0.04,,,0.00,meteohub,2013-03-24 17:27:00,
2013-03-24 11:32:00,31.3,11.5,30.23,NNW,338,3.0,5.0,43,0.04,,,0.04,meteohub,2013-03-24 17:32:00,
2013-03-24 11:37:00,32.4,12.4,30.22,ENE,68,3.0,7.0,43,0.04,,,0.04,meteohub,2013-03-24 17:37:00,
2013-03-24 11:42:00,32.7,12.2,30.21,NNW,338,2.0,7.0,42,0.04,,,0.04,meteohub,2013-03-24 17:42:00,
2013-03-24 11:47:00,31.5,10.6,30.23,NNE,22,3.0,5.0,41,0.04,,,0.04,meteohub,2013-03-24 17:47:00,
2013-03-24 11:52:00,32.2,11.7,30.22,North,0,0.0,4.0,42,0.04,,,0.04,meteohub,2013-03-24 17:52:00,
2013-03-24 11:57:00,32.2,11.7,30.22,NNE,22,3.0,4.0,42,0.04,,,0.04,meteohub,2013-03-24 17:57:00,
2013-03-24 12:02:00,32.0,10.9,30.22,ENE,68,3.0,5.0,41,0.04,,,0.04,meteohub,2013-03-24 18:02:00,
2013-03-24 12:12:00,33.3,12.7,30.21,NNE,22,4.0,6.0,42,0.04,,,0.04,meteohub,2013-03-24 18:12:00,
2013-03-24 12:17:00,33.1,12.6,30.25,NNE,22,2.0,6.0,42,0.04,,,0.04,meteohub,2013-03-24 18:17:00,
2013-03-24 12:22:00,32.7,12.2,30.25,NNE,22,2.0,7.0,42,0.04,,,0.04,meteohub,2013-03-24 18:22:00,
2013-03-24 12:32:00,32.5,12.0,30.22,ENE,68,4.0,7.0,42,0.00,,,0.04,meteohub,2013-03-24 18:32:00,
2013-03-24 12:37:00,33.1,12.6,30.21,WNW,292,0.0,6.0,42,0.00,,,0.04,meteohub,2013-03-24 18:37:00,
2013-03-24 12:42:00,32.5,11.5,30.22,NNW,338,4.0,7.0,41,0.00,,,0.04,meteohub,2013-03-24 18:42:00,
2013-03-24 12:52:00,32.9,11.8,30.21,NNE,22,4.0,7.0,41,0.00,,,0.04,meteohub,2013-03-24 18:52:00,
2013-03-24 12:57:00,33.3,12.2,30.21,NW,315,6.0,6.0,41,0.00,,,0.04,meteohub,2013-03-24 18:57:00,
2013-03-24 13:02:00,33.4,12.4,30.20,NNE,22,2.0,6.0,41,0.00,,,0.04,meteohub,2013-03-24 19:02:00,
2013-03-24 13:07:00,33.8,12.0,30.20,NNE,22,0.0,6.0,40,0.00,,,0.04,meteohub,2013-03-24 19:07:00,
2013-03-24 13:17:00,34.3,12.6,30.19,NNW,338,2.0,6.0,40,0.00,,,0.04,meteohub,2013-03-24 19:17:00,
2013-03-24 13:27:00,34.3,12.6,30.19,ENE,68,0.0,6.0,40,0.00,,,0.04,meteohub,2013-03-24 19:27:00,
2013-03-24 13:32:00,34.0,12.2,30.20,NNW,338,0.0,6.0,40,0.00,,,0.04,meteohub,2013-03-24 19:32:00,
2013-03-24 13:37:00,34.0,11.7,30.20,NNE,22,3.0,6.0,39,0.00,,,0.04,meteohub,2013-03-24 19:37:00,
2013-03-24 13:47:00,33.3,11.1,30.21,NNE,22,0.0,6.0,39,0.00,,,0.04,meteohub,2013-03-24 19:47:00,
2013-03-24 13:52:00,34.0,12.2,30.20,NNW,338,1.0,6.0,40,0.00,,,0.04,meteohub,2013-03-24 19:52:00,
2013-03-24 13:57:00,34.3,12.6,30.19,NNE,22,3.0,6.0,40,0.00,,,0.04,meteohub,2013-03-24 19:57:00,
2013-03-24 14:02:00,36.1,13.6,30.17,NE,45,2.0,5.0,39,0.00,,,0.04,meteohub,2013-03-24 20:02:00,
2013-03-24 14:12:00,35.8,13.3,30.18,NNE,22,3.0,5.0,39,0.00,,,0.04,meteohub,2013-03-24 20:12:00,
2013-03-24 14:17:00,35.2,11.7,30.18,NNW,338,4.0,6.0,37,0.00,,,0.04,meteohub,2013-03-24 20:17:00,
2013-03-24 14:22:00,36.1,13.1,30.17,NW,315,2.0,6.0,38,0.00,,,0.04,meteohub,2013-03-24 20:22:00,
2013-03-24 14:27:00,35.4,11.8,30.18,NNW,338,4.0,6.0,37,0.00,,,0.04,meteohub,2013-03-24 20:27:00,
2013-03-24 14:37:00,34.9,11.8,30.19,ENE,68,5.0,6.0,38,0.00,,,0.04,meteohub,2013-03-24 20:37:00,
2013-03-24 14:42:00,35.2,12.2,30.18,ESE,112,4.0,6.0,38,0.00,,,0.04,meteohub,2013-03-24 20:42:00,
2013-03-24 14:47:00,35.8,12.7,30.18,ENE,68,3.0,5.0,38,0.00,,,0.04,meteohub,2013-03-24 20:47:00,
2013-03-24 14:52:00,36.5,13.5,30.17,NNW,338,0.0,5.0,38,0.00,,,0.04,meteohub,2013-03-24 20:52:00,
2013-03-24 15:02:00,36.3,12.6,30.17,ENE,68,4.0,4.0,37,0.00,,,0.04,meteohub,2013-03-24 21:02:00,
2013-03-24 15:07:00,36.7,12.9,30.17,NW,315,3.0,4.0,37,0.00,,,0.04,meteohub,2013-03-24 21:07:00,
2013-03-24 15:17:00,36.3,12.6,30.17,ENE,68,1.0,6.0,37,0.00,,,0.04,meteohub,2013-03-24 21:17:00,
2013-03-24 15:22:00,36.9,13.6,30.16,ENE,68,3.0,6.0,38,0.00,,,0.04,meteohub,2013-03-24 21:22:00,
2013-03-24 15:27:00,35.6,12.6,30.18,NNE,22,2.0,6.0,38,0.00,,,0.04,meteohub,2013-03-24 21:27:00,
2013-03-24 15:32:00,34.9,11.8,30.19,NE,45,1.0,5.0,38,0.00,,,0.04,meteohub,2013-03-24 21:32:00,
2013-03-24 15:37:00,36.3,13.8,30.17,NNW,338,0.0,5.0,39,0.00,,,0.04,meteohub,2013-03-24 21:37:00,
2013-03-24 15:42:00,36.3,13.8,30.17,ESE,112,3.0,4.0,39,0.00,,,0.04,meteohub,2013-03-24 21:42:00,
2013-03-24 15:47:00,34.9,13.1,30.19,ESE,112,2.0,5.0,40,0.00,,,0.04,meteohub,2013-03-24 21:47:00,
2013-03-24 15:57:00,35.2,13.5,30.18,ENE,68,3.0,9.0,40,0.00,,,0.04,meteohub,2013-03-24 21:57:00,
2013-03-24 16:02:00,34.3,12.6,30.19,ENE,68,2.0,9.0,40,0.00,,,0.04,meteohub,2013-03-24 22:02:00,
2013-03-24 16:12:00,34.3,13.1,30.19,ENE,68,0.0,6.0,41,0.00,,,0.04,meteohub,2013-03-24 22:12:00,
2013-03-24 16:17:00,33.6,12.6,30.20,ESE,112,2.0,5.0,41,0.00,,,0.04,meteohub,2013-03-24 22:17:00,
2013-03-24 16:22:00,32.9,11.8,30.21,ENE,68,0.0,4.0,41,0.00,,,0.04,meteohub,2013-03-24 22:22:00,
2013-03-24 16:27:00,33.3,12.2,30.21,ENE,68,0.0,4.0,41,0.00,,,0.04,meteohub,2013-03-24 22:27:00,
2013-03-24 16:32:00,33.1,12.0,30.21,ESE,112,2.0,3.0,41,0.00,,,0.04,meteohub,2013-03-24 22:32:00,
2013-03-24 16:37:00,32.2,11.1,30.22,NNE,22,0.0,4.0,41,0.00,,,0.04,meteohub,2013-03-24 22:37:00,
2013-03-24 16:42:00,31.5,10.6,30.23,SE,135,0.0,4.0,41,0.00,,,0.04,meteohub,2013-03-24 22:42:00,
2013-03-24 16:52:00,32.9,12.4,30.21,East,90,3.0,4.0,42,0.00,,,0.04,meteohub,2013-03-24 22:52:00,
2013-03-24 17:02:00,33.1,12.6,30.21,West,270,2.0,5.0,42,0.00,,,0.04,meteohub,2013-03-24 23:02:00,
2013-03-24 17:07:00,31.5,11.1,30.23,SW,225,0.0,5.0,42,0.00,,,0.04,meteohub,2013-03-24 23:07:00,
2013-03-24 17:12:00,31.5,11.1,30.23,SW,225,0.0,5.0,42,0.00,,,0.04,meteohub,2013-03-24 23:12:00,
2013-03-24 17:17:00,31.6,12.2,30.26,SSW,202,2.0,6.0,44,0.00,,,0.04,meteohub,2013-03-24 23:17:00,
2013-03-24 17:27:00,30.9,11.7,30.27,WSW,248,2.0,5.0,44,0.00,,,0.04,meteohub,2013-03-24 23:27:00,
2013-03-24 17:32:00,30.4,11.1,30.28,SSW,202,0.0,5.0,44,0.00,,,0.04,meteohub,2013-03-24 23:32:00,
2013-03-24 17:37:00,29.3,10.0,30.29,West,270,1.0,5.0,44,0.00,,,0.04,meteohub,2013-03-24 23:37:00,
2013-03-24 17:42:00,28.6,10.4,30.30,WSW,248,3.0,4.0,46,0.00,,,0.04,meteohub,2013-03-24 23:42:00,
2013-03-24 17:47:00,29.1,11.8,30.30,WSW,248,3.0,4.0,48,0.00,,,0.04,meteohub,2013-03-24 23:47:00,
2013-03-24 17:52:00,29.3,11.7,30.29,SSW,202,0.0,4.0,47,0.00,,,0.04,meteohub,2013-03-24 23:52:00,
2013-03-24 17:57:00,28.4,10.8,30.30,West,270,2.0,4.0,47,0.00,,,0.04,meteohub,2013-03-24 23:57:00,
2013-03-24 18:02:00,27.9,10.2,30.31,WSW,248,2.0,4.0,47,0.00,,,0.04,meteohub,2013-03-25 00:02:00,
2013-03-24 18:07:00,27.0,9.9,30.32,WSW,248,4.0,4.0,48,0.00,,,0.04,meteohub,2013-03-25 00:07:00,
2013-03-24 18:17:00,26.8,11.1,30.32,WNW,292,6.0,6.0,51,0.00,,,0.04,meteohub,2013-03-25 00:17:00,
2013-03-24 18:27:00,25.7,9.7,30.34,West,270,0.0,6.0,50,0.00,,,0.04,meteohub,2013-03-25 00:27:00,
2013-03-24 18:32:00,25.3,9.7,30.34,WNW,292,0.0,6.0,51,0.00,,,0.04,meteohub,2013-03-25 00:32:00,
2013-03-24 18:37:00,25.2,10.0,30.35,WSW,248,0.0,4.0,52,0.00,,,0.04,meteohub,2013-03-25 00:37:00,
2013-03-24 18:42:00,24.8,9.7,30.35,SW,225,1.0,4.0,52,0.00,,,0.04,meteohub,2013-03-25 00:42:00,
2013-03-24 18:47:00,24.6,9.5,30.35,SSE,158,0.0,4.0,52,0.00,,,0.04,meteohub,2013-03-25 00:47:00,
2013-03-24 18:52:00,24.4,9.9,30.35,SSW,202,0.0,4.0,53,0.00,,,0.04,meteohub,2013-03-25 00:52:00,
2013-03-24 19:02:00,23.9,9.3,30.36,WNW,292,0.0,3.0,53,0.00,,,0.04,meteohub,2013-03-25 01:02:00,
2013-03-24 19:07:00,23.7,9.5,30.36,WSW,248,0.0,2.0,54,0.00,,,0.04,meteohub,2013-03-25 01:07:00,
2013-03-24 19:12:00,23.5,9.3,30.37,NNW,338,1.0,3.0,54,0.00,,,0.04,meteohub,2013-03-25 01:12:00,
2013-03-24 19:17:00,23.5,9.3,30.40,WNW,292,0.0,3.0,54,0.00,,,0.04,meteohub,2013-03-25 01:17:00,
2013-03-24 19:27:00,23.4,9.7,30.40,West,270,2.0,4.0,55,0.00,,,0.04,meteohub,2013-03-25 01:27:00,
2013-03-24 19:32:00,23.2,9.5,30.41,NNW,338,0.0,4.0,55,0.00,,,0.04,meteohub,2013-03-25 01:32:00,
2013-03-24 19:37:00,23.0,9.3,30.41,NNW,338,0.0,4.0,55,0.00,,,0.04,meteohub,2013-03-25 01:37:00,
2013-03-24 19:42:00,22.8,8.8,30.41,WNW,292,2.0,3.0,54,0.00,,,0.04,meteohub,2013-03-25 01:42:00,
2013-03-24 19:47:00,22.6,8.6,30.41,WNW,292,0.0,3.0,54,0.00,,,0.04,meteohub,2013-03-25 01:47:00,
2013-03-24 19:52:00,22.5,8.8,30.42,NNW,338,1.0,3.0,55,0.00,,,0.04,meteohub,2013-03-25 01:52:00,
2013-03-24 19:57:00,22.5,8.8,30.42,WSW,248,0.0,3.0,55,0.00,,,0.04,meteohub,2013-03-25 01:57:00,
2013-03-24 20:02:00,22.3,8.6,30.42,WSW,248,0.0,3.0,55,0.00,,,0.04,meteohub,2013-03-25 02:02:00,
2013-03-24 20:07:00,22.3,8.6,30.42,WNW,292,0.0,4.0,55,0.00,,,0.04,meteohub,2013-03-25 02:07:00,
2013-03-24 20:12:00,22.5,8.8,30.42,WSW,248,4.0,4.0,55,0.00,,,0.04,meteohub,2013-03-25 02:12:00,
2013-03-24 20:17:00,22.6,9.0,30.41,NNE,22,0.0,6.0,55,0.00,,,0.04,meteohub,2013-03-25 02:17:00,
2013-03-24 20:22:00,22.6,8.6,30.41,NNE,22,0.0,6.0,54,0.00,,,0.04,meteohub,2013-03-25 02:22:00,
2013-03-24 20:27:00,22.6,8.6,30.41,NNE,22,0.0,6.0,54,0.00,,,0.04,meteohub,2013-03-25 02:27:00,
2013-03-24 20:32:00,22.6,8.6,30.41,NNW,338,0.0,3.0,54,0.00,,,0.04,meteohub,2013-03-25 02:32:00,
2013-03-24 20:37:00,22.5,8.8,30.42,North,0,0.0,4.0,55,0.00,,,0.04,meteohub,2013-03-25 02:37:00,
2013-03-24 20:42:00,22.3,8.6,30.42,NNW,338,0.0,4.0,55,0.00,,,0.04,meteohub,2013-03-25 02:42:00,
2013-03-24 20:47:00,22.3,8.6,30.45,ENE,68,0.0,4.0,55,0.00,,,0.04,meteohub,2013-03-25 02:47:00,
2013-03-24 20:52:00,21.9,8.6,30.46,NNE,22,0.0,4.0,56,0.00,,,0.04,meteohub,2013-03-25 02:52:00,
2013-03-24 20:57:00,21.7,8.4,30.46,NNW,338,0.0,3.0,56,0.00,,,0.04,meteohub,2013-03-25 02:57:00,
2013-03-24 21:07:00,21.2,8.4,30.47,NNE,22,0.0,0.0,57,0.00,,,0.04,meteohub,2013-03-25 03:07:00,
2013-03-24 21:12:00,21.0,8.6,30.47,NNE,22,0.0,0.0,58,0.00,,,0.04,meteohub,2013-03-25 03:12:00,
2013-03-24 21:17:00,20.8,8.4,30.47,NNE,22,0.0,0.0,58,0.00,,,0.04,meteohub,2013-03-25 03:17:00,
2013-03-24 21:27:00,20.3,8.2,30.48,NNE,22,0.0,0.0,59,0.00,,,0.04,meteohub,2013-03-25 03:27:00,
2013-03-24 21:32:00,19.9,7.9,30.48,NNE,22,0.0,0.0,59,0.00,,,0.04,meteohub,2013-03-25 03:32:00,
2013-03-24 21:42:00,19.6,8.1,30.49,NNE,22,0.0,0.0,60,0.00,,,0.04,meteohub,2013-03-25 03:42:00,
2013-03-24 21:47:00,19.4,8.6,30.49,NNE,22,0.0,0.0,62,0.00,,,0.04,meteohub,2013-03-25 03:47:00,
2013-03-24 21:57:00,19.2,8.4,30.49,NNE,22,0.0,0.0,62,0.00,,,0.04,meteohub,2013-03-25 03:57:00,
2013-03-24 22:02:00,19.0,8.6,30.50,NE,45,0.0,0.0,63,0.00,,,0.04,meteohub,2013-03-25 04:02:00,
2013-03-24 22:07:00,19.0,8.6,30.50,NE,45,0.0,0.0,63,0.00,,,0.04,meteohub,2013-03-25 04:07:00,
2013-03-24 22:12:00,18.9,8.8,30.50,NE,45,0.0,0.0,64,0.00,,,0.04,meteohub,2013-03-25 04:12:00,
2013-03-24 22:17:00,18.7,8.6,30.50,NE,45,0.0,0.0,64,0.00,,,0.04,meteohub,2013-03-25 04:17:00,
2013-03-24 22:22:00,18.5,8.4,30.51,NE,45,0.0,0.0,64,0.00,,,0.04,meteohub,2013-03-25 04:22:00,
2013-03-24 22:32:00,18.3,9.0,30.51,NE,45,0.0,0.0,66,0.00,,,0.04,meteohub,2013-03-25 04:32:00,
2013-03-24 22:37:00,18.3,9.0,30.51,NE,45,0.0,0.0,66,0.00,,,0.04,meteohub,2013-03-25 04:37:00,
2013-03-24 22:42:00,18.3,9.1,30.51,NE,45,0.0,0.0,67,0.00,,,0.04,meteohub,2013-03-25 04:42:00,
2013-03-24 22:47:00,18.3,9.1,30.51,NE,45,0.0,0.0,67,0.00,,,0.04,meteohub,2013-03-25 04:47:00,
2013-03-24 22:52:00,18.1,9.3,30.51,NE,45,0.0,0.0,68,0.00,,,0.04,meteohub,2013-03-25 04:52:00,
2013-03-24 23:02:00,18.3,9.5,30.51,NE,45,0.0,0.0,68,0.00,,,0.04,meteohub,2013-03-25 05:02:00,
2013-03-24 23:07:00,18.5,10.0,30.51,NE,45,0.0,0.0,69,0.00,,,0.04,meteohub,2013-03-25 05:07:00,
2013-03-24 23:17:00,18.9,10.8,30.50,ENE,68,0.0,0.0,70,0.00,,,0.04,meteohub,2013-03-25 05:17:00,
2013-03-24 23:22:00,19.2,11.7,30.49,ESE,112,0.0,0.0,72,0.00,,,0.04,meteohub,2013-03-25 05:22:00,
2013-03-24 23:27:00,19.4,11.8,30.49,East,90,0.0,3.0,72,0.00,,,0.04,meteohub,2013-03-25 05:27:00,
2013-03-24 23:32:00,19.4,11.8,30.49,ENE,68,0.0,3.0,72,0.00,,,0.04,meteohub,2013-03-25 05:32:00,
2013-03-24 23:42:00,19.6,11.7,30.49,ESE,112,0.0,2.0,71,0.00,,,0.04,meteohub,2013-03-25 05:42:00,
2013-03-24 23:47:00,19.6,12.0,30.49,ESE,112,0.0,2.0,72,0.00,,,0.04,meteohub,2013-03-25 05:47:00,
2013-03-24 23:52:00,19.6,11.7,30.49,ESE,112,0.0,0.0,71,0.00,,,0.04,meteohub,2013-03-25 05:52:00,
2013-03-24 23:57:00,19.8,11.8,30.49,ESE,112,0.0,0.0,71,0.00,,,0.04,meteohub,2013-03-25 05:57:00,